Simultaneous Nadir Overpasses (SNOs) Predictions

Prediction of SNOs between GOES-16 and LANDSAT-8 Satellite Orbit:

Table of predicted SNOs for the next 14.0 days since TLE Epoch: 2/24/2024
Index Date Time (GOES-16) GOES-16 Lat,Lon LANDSAT-8 Lat,Lon Distance(km) Time Diff (sec)
1 02/24/2024 03:30:50 -0.06, -75.20 0.00, -79.32 458.57 80
2 02/25/2024 14:54:19 0.05, -75.22 -0.84, -70.98 482.41 80
3 02/26/2024 03:18:23 -0.06, -75.21 -0.26, -76.17 109.59 80
4 02/28/2024 03:03:30 -0.05, -75.22 0.35, -73.21 228.71 80
5 02/28/2024 15:24:46 0.06, -75.25 0.70, -78.38 354.90 80
6 03/01/2024 15:12:33 0.05, -75.27 0.07, -75.41 16.23 80
7 03/03/2024 15:00:20 0.05, -75.29 -0.58, -72.46 322.78 80
8 03/04/2024 03:24:23 -0.05, -75.28 -0.56, -77.64 268.74 80
9 03/06/2024 03:09:30 -0.05, -75.30 0.11, -74.69 70.50 80
10 03/08/2024 02:57:16 -0.04, -75.33 0.74, -71.72 410.31 80
11 03/08/2024 15:18:31 0.04, -75.35 0.35, -76.88 173.13 80
